DMSP 5D-2 F13 DEB, 40416

Orbit data source: Space-Track

DMSP 5D-2 F13 DEB, 40416 is space debris in SSO originally from a launch on Fri, 24 Mar 1995 UTC launched from the Air Force Western Test Range (AFWTR). Debris objects in space refer to the collection of defunct objects orbiting the Earth. Examples of debris include non-operational satellites, rocket bodies, and fragments generated from explosions, collisions, or faulty payload assembly.

Loading next visibility...
Identifier
40416, 1995-015AD
Orbit
SSO
Country
Flag of USUS
Related business
Manufacturer
Unknown
Mission
Spacecraft
Bus & Motor
Unknown
Mass
Unknown
Launch date (UTC)
1995-03-24 (31 years ago)
Launch vehicle
Unknown
Launch site
Air Force Western Test Range (AFWTR)
Object type
Payload
Rocket body
Debris
Shape & HBR
Unknown shape, 0.1 m
Radar Cross Section
Small (<0.1 m²)

Expand to show TLE details & history
Last TLE update: 3 days ago

TLE from 3 days ago
0 DMSP 5D-2 F13 DEB
1 40416U 95015AD  26170.56135277  .00001411  00000-0  58441-3 0  9999
2 40416  98.7376 196.7196 0006774  88.7880 271.4077 14.28182443586092
Epoch: 2026-06-19T13:28Z
TLE epoch observation values (Epoch: 2026-06-19T13:28:20.879Z)
Latitude
-0.00001°
Longitude
86.84405°
Altitude
800.621 km
Speed
7.453 km/s
True Right ascension
13h 06m 52s
True Declination
0° 00' 00"
Sunlit
Object was in daylight at epoch
Visualization orbit readout
Latitude
Unknown
Longitude
Unknown
Altitude
Unknown
Speed
Unknown
Apparent Right ascension
Unknown
Apparent Declination
Unknown
Sunlit
N/A
Visualization observer readout
Local Sidereal Time
21:38:16
Azimuth
Unknown
Elevation
Unknown
Doppler factor
Unknown
Orbital elements
Apogee altitude
799.821 km
Perigee altitude
790.103 km
Semi-major axis
7,173.099 km
Eccentricity
0.00068
Inclination
98.7376°
RAAN
196.7196°
Arg. of periapsis
88.788°
True anomaly
271.3301°
Mean anomaly
271.4077°
Eccentric anomaly
271.3689°
Mean motion
3.57259 °/min
Orbital period
100.77 mins
BSTAR
0.00058441

Documentation

Showing up to 5 results
|